STARLINK-11640, 63314

Orbit data source: Space-Track

STARLINK-11640, 63314 is a payload satellite owned by SpaceX/Seattle (US) in LEO that was launched on Tue, 18 Mar 2025 UTC via an FALCON 9 launch vehicle from the Air Force Eastern Test Range (AFETR). Payload-class satellites include a variety of spacecraft equipped with specific instruments for various scientific and technological missions. These include communications satellites like Starlink; space stations such as the ISS; scientific satellites like the Hubble; Earth observation satellites from companies like Planet Labs, Umbra, and HawkEye 360; GPS; miniature CubeSats for education and research; and military/defense satellites.

Loading next visibility...
Identifier
63314, 2025-057H
Orbit
LEO
Last TLE update
10 hours ago
Origin
Manufacturer
SpaceX/Seattle
Mission
Operational Commercial Communications
Bus & Motor
STARLINK V2M, Unknown motor
Mass
730 kg wet, ~700 kg dry
Launch date (UTC)
2025-03-18 (2 months ago)
Launch vehicle
FALCON 9
Launch site
Air Force Eastern Test Range (AFETR)
Object type
Payload
Rocket body
Debris
Shape & HBR
Box + 2 Pan, 29 m
Radar Cross Section
36.964 m², Large (>1 m²)

Expand to show TLE details & history

TLE from 10 hours ago
0 STARLINK-11640
1 63314U 25057H   25128.79174464  .00002745  00000-0  24884-4 0  9994
2 63314  42.9983 302.4890 0001683 263.6556  96.4120 15.70839897  8064
Epoch: 2025-05-08T19:00Z
Definitive object data (Epoch: 2025-05-08T19:00:06.736Z)
Latitude
-0.00003°
Longitude
150.60373°
Altitude
356.393 km
Speed
7.697 km/s
True Right ascension
20h 09m 57s
True Declination
0° 00' 00"
Sunlit
Object was in daylight at TLE epoch
Visualization TLE readout
Latitude
-42.99718°
Longitude
51.92974°
Altitude
368.604 km
Speed
7.689 km/s
Apparent Right ascension
18h 43m 23s
Apparent Declination
-88° 36' 03"
Sunlit
Object is in full shadow
Visualization observer readout
Local Sidereal Time
13:25:37
Azimuth
178.214° S
Elevation
-39.646°
Doppler factor
1
Orbital elements
Apogee altitude
359.611 km
Perigee altitude
357.343 km
Semi-major axis
6,736.614 km
Eccentricity
0.0001683
Inclination
42.9983°
RAAN
302.489°
Arg. of periapsis
263.6556°
True anomaly
96.43116°
Mean anomaly
96.412°
Eccentric anomaly
96.42158°
Mean motion
3.92537 °/min
BSTAR
0.000024884
Orbital period
91.71 mins
Loading maneuver chart data...
Loading SW <> Apogee altitude chart data...
Loading historical data...
Loading historical data...
Loading historical data...
Loading historical data...
Loading historical data...
Loading historical data...
Loading historical data...

STARLINK-11640 Visibility forecast

Observer location: undefined°, undefined°

Span
Click to sort rows by Start time (UTC) header in descending order
Start Az.
Max El. time (UTC)
Max El. Az.
Max El.
End time (UTC)
End Az.
4 mins2025-05-09 15:03:58.864Z220.016° SW2025-05-09 15:05:58.864Z156.316° SSE33.43°2025-05-09 15:07:58.864Z88.175° E
4 mins2025-05-09 16:40:58.864Z288.249° WNW2025-05-09 16:41:58.864Z338.554° N38.28°2025-05-09 16:44:58.864Z68.802° E
4 mins2025-05-09 18:16:58.864Z302.853° NW2025-05-09 18:17:58.864Z333.703° NNW34.241°2025-05-09 18:20:58.864Z82.676° E
4 mins2025-05-09 19:52:58.864Z273.083° WNW2025-05-09 19:54:58.864Z172.306° S36.233°2025-05-09 19:56:58.864Z129.13° SE
|